Location: Oberkirch
(48.5323°N, 8.0787°E)
Time: 16:35:14
(UTC+00:00)

SR - Pass Details

Date: 23 February 2026
Orbit: 572 x 848 km, 66.7° (Epoch: 8 March)

Event Time Altitude Azimuth Distance (km) Brightness Sun altitude
Exits shadow 03:28:53 31° 20° (NNE) 1,080 ? -28.9°
Drops below altitude 10° 03:31:25 10° 31° (NNE) 2,024 ? -28.5°
Sets 03:33:49 0° 34° (NE) 2,979 ? -28.2°
